Wind_Speed
12 10 9 27 56 67 72 73 74 73 75 76 78 82 86 90 93 92 94 91 95 89 88 90 95 96 96 94 91 90 86 80 76 81 82 76 72 71 69 69 67 67 67 65 67
18 17 17 16 21 45 64 72 75 75 74 75 78 81 87 89 92 95 94 93 96 93 93 91 92 97 96 97 96 92 84 80 79 79 78 77 76 79 80 75 69 69 64 64 63
23 23 23 23 24 24 34 60 71 75 77 77 78 82 84 91 93 100 99 100 99 100 99 97 98 94 93 96 95 94 88 90 89 90 90 82 77 68 63 68 64 58 59 65 68
33 31 29 30 30 30 30 32 46 68 76 80 82 83 82 87 91 97 105 106 106 105 106 105 107 103 97 97 100 96 92 96 95 95 94 88 86 80 76 65 65 65 71 70 72
39 38 37 36 36 36 36 38 38 40 57 75 84 87 86 87 90 93 101 108 110 109 108 107 103 107 107 103 105 99 93 94 96 99 99 99 88 86 78 77 81 82 65 68 73
44 43 42 39 39 40 41 43 46 46 47 51 68 82 91 92 91 92 96 102 107 108 111 109 108 105 109 108 103 101 99 100 100 101 101 102 96 94 84 86 83 80 73 69 64
46 42 40 40 41 43 45 47 49 51 53 54 56 66 83 94 98 96 97 99 102 109 110 110 113 112 108 106 107 103 105 107 104 105 103 107 104 90 82 86 90 86 84 85 81
45 45 44 44 46 47 47 48 49 50 54 59 61 63 67 77 94 99 101 102 104 106 111 113 114 115 112 110 108 107 108 105 105 108 105 108 96 90 96 93 88 88 90 90 86
48 49 48 47 46 46 46 47 48 50 55 59 64 69 71 74 77 89 103 106 106 108 110 115 118 120 120 116 116 113 108 105 103 105 106 111 93 99 99 96 92 90 90 85 79
39 40 40 39 40 42 43 45 49 52 56 59 63 70 76 80 82 87 91 99 111 112 114 117 120 121 121 123 118 116 112 111 109 108 107 104 92 95 94 94 91 87 84 80 77
35 35 35 32 30 29 32 36 38 44 47 53 59 65 74 81 88 93 97 101 105 114 119 119 122 119 127 126 123 122 121 119 115 115 111 104 98 97 95 90 87 85 84 85 84
28 27 27 29 30 31 33 34 36 39 48 52 57 63 69 77 86 97 102 106 109 112 117 125 124 124 124 126 126 127 123 119 116 115 114 107 99 94 91 88 86 86 83 83 83
24 24 22 24 25 28 30 34 35 39 47 53 59 66 70 73 77 84 96 106 112 115 116 118 119 127 126 126 127 127 124 120 118 117 111 107 98 93 90 86 85 83 81 79 77
19 20 21 23 26 30 33 37 41 48 55 58 61 66 69 71 73 76 79 88 101 111 119 119 119 121 123 129 130 128 125 121 118 120 116 113 96 94 91 86 82 80 81 77 75
26 26 26 30 34 36 39 44 48 53 56 59 63 67 67 67 64 72 72 74 81 93 103 110 115 123 125 120 124 128 127 123 120 116 109 102 94 92 97 89 85 86 86 81 76
28 29 30 33 36 40 43 45 49 52 55 61 65 64 64 63 61 59 63 63 69 76 83 94 102 108 117 124 123 117 121 123 122 116 108 101 95 85 96 98 96 92 89 87 82
35 36 37 38 41 45 49 50 51 53 54 59 62 61 57 58 62 52 53 55 57 63 69 77 87 98 104 109 116 116 116 114 115 112 102 103 94 83 94 97 98 99 97 92 88
40 40 39 39 42 45 50 51 51 52 55 61 60 60 56 52 61 50 45 47 45 48 55 65 72 79 90 95 100 106 110 113 111 104 97 97 88 86 85 83 89 90 89 84 80
41 43 42 42 47 48 51 51 52 52 56 58 61 59 62 62 50 47 40 39 38 41 45 55 59 63 71 80 91 96 93 103 108 105 103 93 85 77 74 78 79 77 75 71 68
46 48 49 49 51 52 55 56 53 54 58 60 58 54 55 61 50 42 37 35 31 34 39 47 51 57 60 68 74 83 85 93 93 95 98 94 90 77 72 72 65 60 62 58 57
43 48 52 53 55 56 59 63 60 58 59 60 57 51 53 51 42 40 35 31 27 28 33 39 44 48 52 57 62 67 72 80 81 84 89 89 88 82 72 67 57 49 48 47 45
48 48 53 55 58 59 59 63 62 62 62 61 56 51 49 44 35 31 29 27 24 23 28 33 37 39 42 48 53 58 61 69 72 77 84 85 86 77 69 67 54 46 44 40 38
51 50 52 56 58 62 63 65 60 62 61 62 56 53 45 38 31 25 24 23 21 18 22 27 31 32 35 39 43 45 50 57 64 71 77 76 78 72 65 66 57 46 41 34 32
53 52 53 58 58 59 62 63 59 62 62 61 57 55 45 34 25 22 21 21 20 15 16 23 26 27 29 32 37 42 50 54 61 67 70 71 75 72 67 66 57 50 42 34 31
55 56 57 61 61 60 64 57 53 57 62 58 57 56 41 31 25 21 18 16 16 14 14 17 20 22 23 28 32 40 50 53 59 66 64 68 70 68 68 64 57 52 41 33 31
57 58 56 59 61 61 63 53 52 57 56 56 55 50 37 29 25 23 19 15 11 9 10 10 13 16 19 25 31 41 51 54 61 61 65 66 67 68 72 63 60 52 40 35 32
56 59 57 57 59 60 58 51 47 54 57 52 54 47 35 28 23 19 16 13 8 5 3 6 10 13 18 27 34 44 56 55 57 62 60 64 68 70 75 66 59 52 43 37 34
Wind_Direction
330 311 282 243 238 238 237 237 236 236 235 236 234 235 234 232 235 234 234 235 240 240 238 236 238 240 242 244 247 247 244 244 250 252 250 250 252 255 257 255 257 257 259 260 263
316 303 288 274 255 239 238 238 239 237 236 236 236 235 235 234 236 233 235 236 239 239 241 239 240 240 240 244 244 245 246 246 247 242 243 248 250 253 255 256 260 259 260 265 267
311 297 288 276 264 258 248 238 238 237 238 237 237 237 236 236 236 232 234 237 238 239 241 244 245 242 243 242 244 244 242 244 245 243 244 244 241 243 252 255 252 254 258 259 265
307 304 285 273 267 262 254 252 246 236 237 237 239 238 237 236 237 235 235 237 239 240 241 244 243 243 243 242 243 240 242 244 243 243 244 245 244 249 245 247 250 250 253 266 265
300 298 293 281 271 264 260 255 248 246 241 236 237 238 238 238 237 237 237 239 239 241 242 242 243 244 245 245 246 241 241 242 241 242 244 246 245 245 244 244 255 262 261 257 256
293 291 287 278 273 267 262 257 253 247 245 242 239 238 238 239 238 237 237 239 240 241 240 241 241 242 243 243 244 241 239 240 241 242 244 247 247 249 254 256 257 259 253 253 255
289 286 283 277 274 271 268 262 257 253 251 247 246 245 242 239 239 239 239 237 240 241 242 242 240 243 240 243 244 244 240 238 241 242 243 248 249 253 253 255 257 260 261 263 263
286 284 282 278 277 274 271 266 261 256 253 251 249 246 247 246 242 241 241 240 239 240 241 242 242 242 242 240 242 245 244 243 242 243 246 248 248 252 253 255 257 259 263 267 269
285 283 280 277 274 273 269 266 264 260 259 256 252 250 248 246 244 245 244 243 242 241 242 243 241 240 241 242 242 243 247 247 246 244 245 246 248 248 250 253 256 259 263 267 266
290 288 285 282 278 275 274 268 265 263 263 261 258 254 251 250 247 245 243 243 244 242 240 240 242 240 242 242 243 245 244 243 243 247 247 247 245 248 251 253 254 255 257 256 255
290 286 284 280 277 277 278 274 270 270 270 269 266 263 259 256 250 248 247 244 243 243 243 242 240 241 242 243 241 242 242 244 243 244 246 249 247 247 248 252 254 254 256 258 259
302 299 286 281 281 278 281 283 286 288 285 279 273 267 262 259 258 254 250 248 247 244 243 242 241 241 240 242 243 244 242 242 243 244 246 246 246 247 249 252 253 254 256 258 260
313 306 300 293 291 288 288 284 278 286 291 287 282 279 276 272 267 262 259 256 252 249 248 247 246 243 242 242 243 243 244 244 242 244 246 246 245 247 250 251 254 253 256 259 260
320 315 310 303 298 296 291 285 280 282 288 289 285 283 282 280 276 271 264 259 255 253 251 248 246 247 245 242 243 245 245 245 245 245 246 249 248 248 251 254 254 256 256 257 260
329 323 315 306 303 301 298 296 292 292 290 289 289 289 289 285 282 280 275 264 257 253 251 250 248 245 247 245 243 242 244 245 245 245 245 246 248 248 250 252 250 249 251 255 259
327 323 319 314 310 306 303 302 300 297 295 295 295 294 295 291 287 283 278 268 261 255 252 249 247 246 245 245 244 243 242 242 244 245 246 248 249 243 248 246 247 251 254 255 258
330 327 322 319 314 311 310 308 304 303 301 302 302 302 299 296 293 290 278 270 263 257 252 249 245 243 244 243 243 242 242 242 244 245 245 245 246 244 243 248 250 251 251 252 259
326 326 322 320 322 322 320 317 311 310 309 311 310 308 304 301 298 292 281 277 268 261 252 248 245 242 243 243 242 241 240 239 241 244 243 244 243 246 247 246 247 248 250 256 260
327 328 329 326 325 327 326 325 323 317 314 316 317 315 312 307 306 295 289 283 275 264 251 247 243 243 241 241 239 240 239 238 237 238 240 241 241 241 244 243 243 248 254 254 255
325 325 324 325 326 329 330 329 329 325 321 321 320 317 315 308 311 300 293 288 280 265 254 248 242 240 237 237 237 235 235 235 235 234 235 237 236 235 238 242 241 246 249 250 249
323 324 325 327 328 326 330 330 330 330 325 326 324 323 320 314 314 306 299 295 285 266 254 248 244 239 236 234 234 232 230 231 230 230 230 232 232 229 232 236 242 241 242 244 248
318 324 325 326 329 327 329 330 329 331 329 329 330 330 327 322 319 313 306 300 292 273 252 247 245 239 236 233 229 226 225 225 223 223 225 226 227 225 226 228 237 237 238 239 242
317 322 324 326 328 326 327 329 329 331 332 334 336 338 335 332 327 319 311 303 293 278 257 250 241 234 233 230 224 220 215 214 217 219 220 221 224 220 219 224 229 227 231 229 230
316 320 324 326 327 325 327 332 331 332 335 338 340 343 341 337 332 325 319 306 293 277 246 243 243 237 222 221 219 210 203 203 205 211 214 214 218 215 213 219 221 220 225 222 220
315 318 322 325 327 327 329 333 333 335 337 341 344 345 343 341 339 335 325 313 300 288 255 240 236 231 218 209 207 204 194 194 198 205 205 208 213 210 209 215 213 215 216 209 209
314 317 322 325 327 329 331 336 337 336 340 343 347 348 347 344 344 342 338 332 308 291 270 244 235 227 203 202 193 194 187 188 194 195 202 202 206 202 202 210 209 210 203 199 201
312 316 321 326 325 330 332 337 338 339 342 346 351 353 349 349 349 345 343 345 346 336 291 235 218 207 189 193 187 187 183 182 188 192 194 197 201 195 197 203 203 202 193 191 196
Height
10665 10665 10664 10663 10667 10672 10677 10682 10688 10696 10704 10711 10716 10721 10725 10730 10733 10739 10742 10747 10751 10763 10771 10776 10779 10785 10791 10799 10806 10812 10831 10839 10838 10835 10834 10834 10845 10853 10861 10866 10870 10869 10872 10874 10873
10663 10663 10662 10661 10660 10660 10664 10670 10676 10682 10688 10694 10700 10702 10707 10713 10716 10724 10731 10734 10739 10750 10753 10760 10764 10768 10778 10782 10791 10800 10818 10825 10820 10818 10814 10818 10832 10839 10851 10858 10860 10860 10862 10861 10867
10659 10658 10657 10656 10655 10655 10655 10656 10661 10667 10673 10679 10683 10684 10688 10695 10698 10708 10714 10716 10722 10731 10736 10741 10743 10752 10761 10765 10778 10786 10808 10802 10801 10802 10794 10807 10820 10830 10835 10846 10848 10849 10852 10852 10854
10649 10649 10649 10648 10647 10648 10648 10648 10648 10652 10657 10663 10666 10667 10672 10681 10684 10691 10696 10701 10704 10710 10717 10721 10723 10731 10743 10750 10752 10766 10782 10785 10781 10783 10782 10790 10804 10824 10826 10832 10834 10840 10841 10843 10842
10641 10640 10638 10636 10636 10636 10636 10636 10637 10638 10641 10644 10647 10650 10655 10660 10665 10673 10675 10677 10682 10689 10696 10700 10705 10708 10720 10730 10730 10752 10762 10765 10764 10763 10769 10769 10799 10806 10822 10821 10821 10827 10831 10832 10833
10632 10630 10627 10626 10625 10624 10624 10624 10624 10626 10626 10627 10628 10631 10636 10640 10646 10653 10655 10659 10662 10666 10674 10679 10683 10689 10698 10709 10714 10729 10735 10743 10747 10752 10755 10759 10779 10785 10810 10806 10811 10812 10817 10819 10824
10619 10617 10616 10615 10614 10612 10612 10612 10612 10614 10614 10615 10616 10615 10616 10620 10625 10630 10634 10640 10643 10645 10650 10656 10660 10667 10679 10683 10695 10702 10710 10719 10731 10737 10746 10741 10758 10797 10786 10784 10792 10799 10801 10804 10815
10606 10604 10604 10603 10601 10599 10599 10600 10599 10601 10601 10600 10601 10602 10602 10604 10607 10611 10613 10615 10619 10623 10627 10629 10637 10647 10656 10664 10669 10677 10682 10701 10722 10719 10728 10718 10759 10777 10764 10769 10783 10783 10787 10795 10803
10593 10591 10589 10588 10587 10585 10585 10585 10585 10586 10585 10585 10585 10585 10585 10587 10588 10589 10593 10593 10596 10602 10605 10603 10610 10619 10627 10638 10647 10659 10676 10685 10685 10696 10700 10700 10751 10741 10745 10754 10768 10768 10777 10784 10791
10580 10578 10575 10575 10574 10572 10570 10571 10571 10571 10569 10567 10567 10566 10567 10565 10566 10564 10565 10565 10567 10572 10576 10577 10580 10597 10605 10610 10635 10642 10648 10656 10669 10672 10678 10693 10731 10724 10729 10736 10751 10761 10766 10772 10776
10572 10569 10566 10565 10564 10563 10560 10558 10558 10556 10555 10553 10551 10549 10544 10543 10543 10539 10537 10538 10539 10544 10547 10550 10558 10579 10574 10581 10599 10606 10620 10632 10643 10649 10658 10681 10699 10707 10714 10727 10737 10745 10748 10754 10762
10563 10561 10558 10556 10555 10554 10552 10548 10546 10542 10536 10536 10533 10528 10526 10522 10518 10513 10513 10513 10512 10513 10514 10517 10534 10540 10549 10554 10566 10575 10592 10611 10620 10627 10643 10660 10680 10692 10703 10716 10723 10730 10735 10741 10745
10558 10555 10552 10549 10548 10545 10543 10540 10536 10532 10524 10519 10514 10507 10501 10497 10494 10490 10484 10486 10484 10487 10487 10493 10512 10515 10524 10531 10539 10549 10564 10584 10601 10608 10623 10640 10665 10679 10692 10702 10707 10715 10719 10721 10723
10553 10549 10546 10543 10540 10536 10533 10529 10524 10517 10510 10502 10494 10486 10478 10472 10465 10459 10455 10451 10449 10449 10453 10468 10479 10481 10489 10504 10514 10522 10540 10559 10576 10587 10608 10622 10646 10664 10680 10690 10694 10696 10700 10700 10703
10549 10545 10541 10536 10531 10526 10521 10514 10508 10501 10492 10483 10475 10462 10453 10446 10441 10424 10419 10417 10416 10411 10416 10427 10442 10451 10454 10471 10480 10499 10514 10533 10548 10565 10586 10610 10624 10661 10659 10674 10677 10676 10675 10686 10694
10544 10539 10533 10527 10520 10513 10507 10501 10492 10483 10474 10462 10452 10442 10430 10417 10410 10404 10391 10387 10383 10382 10389 10395 10404 10415 10422 10435 10450 10475 10489 10506 10521 10542 10566 10595 10610 10653 10640 10647 10651 10659 10668 10673 10682
10538 10532 10526 10518 10511 10502 10494 10485 10477 10465 10456 10446 10431 10418 10409 10397 10381 10377 10366 10363 10359 10360 10365 10366 10373 10378 10389 10405 10420 10446 10465 10487 10500 10522 10562 10570 10589 10630 10616 10627 10637 10643 10647 10659 10675
10530 10523 10517 10509 10501 10492 10481 10471 10461 10450 10437 10424 10412 10394 10385 10381 10357 10353 10346 10340 10339 10339 10342 10342 10347 10358 10365 10382 10397 10416 10440 10466 10484 10505 10541 10548 10580 10600 10602 10616 10610 10619 10633 10656 10666
10520 10513 10507 10499 10491 10482 10470 10459 10447 10436 10423 10410 10393 10379 10361 10347 10346 10331 10328 10322 10320 10320 10322 10322 10331 10340 10349 10358 10373 10392 10416 10445 10458 10490 10512 10537 10565 10579 10584 10583 10597 10615 10630 10642 10650
10512 10503 10495 10488 10478 10469 10458 10446 10437 10425 10408 10393 10382 10367 10353 10331 10324 10317 10312 10306 10306 10305 10307 10309 10315 10321 10332 10340 10355 10373 10397 10414 10439 10474 10497 10521 10540 10563 10563 10567 10591 10610 10617 10629 10634
10505 10495 10485 10475 10466 10455 10445 10431 10420 10412 10397 10382 10366 10354 10337 10321 10313 10304 10300 10296 10295 10294 10295 10297 10301 10309 10318 10328 10339 10358 10380 10397 10428 10456 10478 10501 10521 10536 10553 10560 10582 10598 10607 10616 10622
10497 10488 10477 10467 10455 10443 10436 10424 10409 10396 10383 10369 10353 10341 10324 10312 10303 10296 10291 10288 10285 10286 10285 10287 10291 10300 10308 10316 10328 10341 10361 10381 10413 10437 10460 10481 10500 10526 10543 10546 10575 10588 10597 10607 10613
10486 10480 10470 10459 10450 10435 10423 10414 10401 10388 10375 10358 10342 10329 10315 10304 10295 10289 10284 10281 10278 10279 10279 10281 10283 10291 10299 10308 10320 10334 10350 10371 10399 10421 10445 10468 10490 10515 10531 10540 10564 10578 10588 10598 10604
10476 10472 10463 10451 10443 10431 10418 10404 10389 10376 10364 10350 10335 10320 10309 10299 10292 10286 10281 10277 10274 10273 10274 10273 10278 10286 10292 10302 10313 10326 10340 10361 10385 10409 10430 10456 10474 10500 10514 10531 10553 10568 10580 10589 10595
10466 10460 10454 10442 10431 10422 10410 10399 10385 10373 10355 10343 10329 10314 10304 10295 10288 10283 10278 10275 10271 10269 10269 10271 10274 10279 10289 10295 10306 10320 10335 10353 10375 10395 10420 10442 10462 10489 10504 10524 10544 10558 10572 10581 10589
10455 10449 10444 10434 10421 10411 10400 10390 10378 10363 10355 10339 10326 10312 10302 10294 10286 10280 10275 10272 10269 10268 10268 10270 10273 10278 10285 10293 10301 10314 10328 10344 10362 10386 10406 10433 10451 10475 10491 10515 10532 10550 10564 10575 10584
10444 10437 10432 10427 10413 10404 10393 10385 10376 10361 10348 10335 10323 10310 10301 10293 10286 10280 10275 10271 10269 10268 10268 10269 10271 10276 10281 10287 10296 10306 10319 10338 10359 10379 10401 10427 10438 10464 10480 10503 10525 10544 10558 10571 10580